User: anonymous   Login
Location: Caltech
(34.1382°N, 118.1253°W)
Time: 00:28:12
(UTC-08:00)
Language:

SL-16 R/B - Orbit

View from above orbital plane
View from above orbital plane
View from above satellite
View from above satellite

Ground track
Ground track

The orbit data is extracted from the following two-line orbital elements,

1 31793U 07029B   14331.16258256  .00000165  00000-0  11130-3 0  1317
2 31793 070.9757 188.8673 0001904 277.6798 193.6017 14.14300995382793
Epoch (UTC): 27 November 2014 03:54:07
Eccentricity: 0.0001904
inclination: 70.9757°
perigee height: 843 km
apogee height: 846 km
right ascension of ascending node: 188.8673°
argument of perigee: 277.6798°
revolutions per day: 14.14300995
mean anomaly at epoch: 193.6017°
orbit number at epoch: 38279

The dashed part of the orbit path shows where the satellite is in the earth's shadow,  

DLR